Regional Weather Roundup
Issued by NWS Nashville, TN

Home | Current Version | Previous Version | Text Only | Print | Product List | Glossary On
Versions: 1 2 3 4 5 6 7 8 9 10 11 12 13 14 15 16 17 18 19 20 21 22 23 24 25 26 27 28 29 30 31 32 33 34 35 36 37 38 39 40 41 42 43 44 45 46 47 48 49 50
000
ASUS44 KOHX 201215
RWROHX
MIDDLE TENNESSEE HOURLY WEATHER ROUNDUP
NATIONAL WEATHER SERVICE NASHVILLE TN
600 AM CST SAT DEC 20 2014

NOTE: "FAIR" INDICATES FEW OR NO CLOUDS BELOW 12,000 FEET WITH
NO SIGNIFICANT WEATHER AND/OR OBSTRUCTIONS TO VISIBILITY.

* THESE REPORTS ARE NOT UNDER NWS QUALITY CONTROL AND MAY NOT
  REPORT WEATHER SUCH AS PRECIPITATION AND FOG.


TNZ005>011-023>034-057-059-062>066-078-080-201300
...NORTHERN MIDDLE TENNESSEE...

CITY           SKY/WX    TMP DP  RH WIND       PRES   REMARKS
CLARKSVILLE    CLOUDY    33  27  78 NE3       30.26R
CROSSVILLE     CLOUDY    34  29  82 E3        30.17R
GALLATIN         N/A     28  25  89 CALM      30.25R
DICKSON        CLEAR     28  25  86 NE3       30.22R
LEBANON        CLEAR     29  25  85 CALM      30.22R
LIVINGSTON     CLOUDY    30  27  89 NE6       30.20R WCI  24
NASHVILLE      CLEAR     31  26  82 N7        30.26R WCI  24
WEST NASHVILLE   N/A     27  27 100 CALM      30.25R
PORTLAND       CLOUDY    27  25  93 CALM      30.23R
SMYRNA         CLEAR     28  25  89 NW3       30.27R
SPARTA         CLEAR     32  28  86 CALM      30.20R
$$
TNZ056-058-060-061-075>077-079-093>097-201300
...SOUTHERN MIDDLE TENNESSEE...

CITY           SKY/WX    TMP DP  RH WIND       PRES   REMARKS
LEWISBURG      CLEAR     27  24  88 CALM      30.24R
MCMINNVILLE    CLEAR     30  28  93 CALM      30.21R
MURFREESBORO   CLEAR     30  26  85 CALM      30.24R
SHELBYVILLE    CLEAR     30  27  86 N5        30.24R WCI  25
TULLAHOMA      CLEAR     28  27  93 CALM      30.22R
WINCHESTER     CLEAR     28  28 100 CALM      30.22R
$$


...KEY TO REMARKS...
VSB - VISIBILITY IN MILES
WCI - WIND CHILL INDEX
HX  - HEAT INDEX




USA.gov is the U.S. government's official web portal to all federal, state and local government web resources and services.